QPF
0.07 0.08 0.09 0.08 0.09 0.09 0.08 0.07 0.07 0.06 0.06 0.04 0.04 0.05 0.04 0.04 0.05 0.06 0.06 0.08 0.13 0.10 0.05 0.04 0.08 0.07 0.05 0.04 0.03 0.02 0.03 0.03 0.03 0.04 0.06 0.07 0.08 0.08
0.08 0.08 0.08 0.08 0.07 0.07 0.07 0.07 0.07 0.06 0.07 0.07 0.08 0.08 0.06 0.07 0.09 0.10 0.10 0.12 0.15 0.09 0.06 0.06 0.08 0.07 0.05 0.03 0.03 0.02 0.03 0.03 0.03 0.04 0.05 0.05 0.06 0.06
0.06 0.08 0.09 0.08 0.08 0.07 0.06 0.05 0.05 0.05 0.06 0.06 0.08 0.08 0.07 0.08 0.09 0.09 0.09 0.12 0.13 0.08 0.06 0.06 0.07 0.06 0.05 0.04 0.03 0.03 0.03 0.03 0.03 0.03 0.03 0.04 0.04 0.04
0.06 0.07 0.09 0.09 0.09 0.08 0.07 0.06 0.05 0.04 0.05 0.06 0.07 0.08 0.08 0.08 0.07 0.07 0.09 0.10 0.09 0.07 0.06 0.05 0.05 0.04 0.04 0.04 0.03 0.03 0.03 0.02 0.02 0.02 0.03 0.03 0.03 0.04
0.07 0.07 0.07 0.08 0.09 0.08 0.07 0.06 0.06 0.06 0.05 0.05 0.06 0.08 0.08 0.07 0.06 0.06 0.07 0.07 0.07 0.06 0.06 0.05 0.05 0.04 0.03 0.03 0.03 0.02 0.02 0.02 0.02 0.02 0.02 0.03 0.03 0.03
0.07 0.07 0.08 0.08 0.08 0.07 0.06 0.06 0.06 0.05 0.04 0.05 0.06 0.08 0.08 0.06 0.06 0.06 0.05 0.05 0.04 0.03 0.04 0.04 0.03 0.03 0.03 0.02 0.02 0.02 0.02 0.02 0.01 0.02 0.02 0.02 0.02 0.02
0.06 0.06 0.07 0.07 0.08 0.06 0.06 0.07 0.06 0.05 0.04 0.05 0.06 0.08 0.07 0.06 0.06 0.04 0.04 0.04 0.03 0.03 0.03 0.03 0.02 0.02 0.02 0.02 0.01 0.01 0.01 0.01 0.01 0.01 0.02 0.02 0.02 0.02
0.05 0.05 0.05 0.06 0.06 0.06 0.05 0.06 0.05 0.04 0.05 0.05 0.06 0.07 0.06 0.05 0.04 0.03 0.03 0.03 0.03 0.03 0.02 0.02 0.01 0.01 0.01 0.01 0.01 0.01 0.01 0.01 0.01 0.01 0.01 0.01 0.02 0.02
0.04 0.04 0.05 0.05 0.05 0.05 0.05 0.05 0.05 0.04 0.04 0.04 0.04 0.05 0.05 0.03 0.03 0.04 0.03 0.03 0.03 0.03 0.02 0.02 0.02 0.02 0.02 0.02 0.02 0.01 0.01 0.01 0.01 0.01 0.01 0.02 0.02 0.02
0.04 0.04 0.04 0.04 0.04 0.04 0.04 0.04 0.04 0.04 0.03 0.03 0.04 0.04 0.04 0.03 0.04 0.04 0.04 0.04 0.04 0.03 0.02 0.02 0.02 0.02 0.02 0.01 0.01 0.01 0.01 0.01 0.01 0.01 0.01 0.01 0.01 0.02
0.03 0.04 0.04 0.04 0.04 0.04 0.03 0.03 0.03 0.04 0.04 0.03 0.04 0.04 0.04 0.05 0.05 0.04 0.05 0.05 0.05 0.04 0.03 0.02 0.02 0.02 0.02 0.01 0.01 0.01 0.01 0.01 0.01 0.01 0.01 0.01 0.01 0.01
0.03 0.03 0.04 0.04 0.05 0.04 0.03 0.03 0.03 0.04 0.03 0.03 0.03 0.03 0.03 0.04 0.04 0.04 0.04 0.04 0.04 0.04 0.03 0.02 0.02 0.02 0.02 0.01 0.01 0.01 0.01 0.01 0.02 0.01 0.01 0.01 0.01 0.01
0.03 0.03 0.04 0.04 0.05 0.05 0.04 0.04 0.04 0.03 0.03 0.03 0.03 0.03 0.03 0.03 0.04 0.03 0.02 0.02 0.02 0.03 0.02 0.02 0.02 0.01 0.02 0.02 0.01 0.01 0.01 0.01 0.02 0.02 0.01 0.01 0.01 0.01
0.04 0.04 0.04 0.04 0.05 0.05 0.05 0.05 0.04 0.03 0.02 0.02 0.03 0.03 0.03 0.03 0.03 0.03 0.03 0.02 0.02 0.02 0.02 0.02 0.02 0.01 0.02 0.02 0.01 0.01 0.01 0.01 0.01 0.02 0.01 0.01 0.01 0.01
0.04 0.04 0.05 0.05 0.05 0.04 0.05 0.05 0.03 0.02 0.02 0.02 0.02 0.03 0.03 0.03 0.03 0.03 0.03 0.02 0.02 0.01 0.02 0.01 0.02 0.02 0.02 0.02 0.01 0.01 0.01 0.01 0.01 0.02 0.01 0.01 0.01 0.01
0.05 0.05 0.05 0.05 0.04 0.04 0.04 0.03 0.03 0.02 0.02 0.02 0.03 0.03 0.03 0.02 0.02 0.02 0.02 0.01 0.01 0.02 0.02 0.01 0.01 0.02 0.02 0.02 0.01 0.01 0.01 0.01 0.01 0.02 0.01 0.01 0.01 0.01
0.05 0.04 0.04 0.03 0.03 0.03 0.03 0.03 0.03 0.03 0.03 0.03 0.03 0.03 0.02 0.02 0.02 0.02 0.01 0.01 0.01 0.02 0.02 0.01 0.01 0.01 0.01 0.02 0.02 0.01 0.01 0.01 0.01 0.02 0.02 0.01 0.01 0.01
0.03 0.02 0.02 0.02 0.02 0.02 0.03 0.03 0.03 0.03 0.03 0.03 0.03 0.02 0.02 0.02 0.02 0.01 0.01 0.01 0.01 0.01 0.01 0.01 0.01 0.01 0.01 0.01 0.01 0.01 0.01 0.02 0.02 0.02 0.02 0.01 0.01 0.01
0.03 0.02 0.02 0.02 0.02 0.02 0.02 0.02 0.02 0.03 0.03 0.03 0.03 0.02 0.02 0.02 0.02 0.01 0.01 0.01 0.01 0.01 0.01 0.01 0.02 0.02 0.02 0.02 0.02 0.01 0.02 0.02 0.02 0.02 0.02 0.01 0.02 0.02
0.02 0.02 0.02 0.02 0.02 0.02 0.02 0.02 0.02 0.03 0.03 0.03 0.03 0.02 0.01 0.01 0.01 0.01 0.01 0.01 0.01 0.01 0.01 0.01 0.02 0.03 0.04 0.03 0.03 0.02 0.02 0.03 0.02 0.02 0.02 0.01 0.01 0.01
0.03 0.02 0.02 0.01 0.02 0.02 0.02 0.02 0.02 0.03 0.03 0.03 0.02 0.01 0.01 0.01 0.01 0.01 0.01 0.01 0.01 0.01 0.01 0.01 0.01 0.02 0.02 0.02 0.03 0.02 0.02 0.02 0.02 0.02 0.02 0.01 0.01 0.02
0.02 0.02 0.02 0.01 0.02 0.02 0.02 0.02 0.02 0.03 0.03 0.02 0.02 0.01 0.01 0.01 0.01 0.01 0.01 0.01 0.01 0.01 0.02 0.01 0.01 0.01 0.02 0.02 0.02 0.02 0.02 0.02 0.02 0.02 0.02 0.02 0.02 0.03
0.02 0.02 0.02 0.02 0.02 0.02 0.02 0.02 0.02 0.02 0.02 0.02 0.01 0.01 0.01 0.01 0.01 0.01 0.01 0.01 0.01 0.01 0.01 0.01 0.01 0.01 0.02 0.02 0.02 0.02 0.02 0.02 0.02 0.02 0.02 0.01 0.02 0.02
MSLP
1010.02 1010.83 1011.67 1012.50 1013.29 1014.03 1014.70 1015.32 1015.88 1016.41 1016.91 1017.39 1017.85 1018.29 1018.67 1019.01 1019.27 1019.46 1019.59 1019.66 1019.68 1019.68 1019.65 1019.62 1019.58 1019.52 1019.43 1019.31 1019.15 1018.96 1018.73 1018.49 1018.23 1017.97 1017.71 1017.45 1017.20 1016.93
1009.48 1010.27 1011.10 1011.92 1012.70 1013.43 1014.11 1014.74 1015.33 1015.89 1016.45 1016.98 1017.49 1017.97 1018.40 1018.76 1019.03 1019.23 1019.35 1019.40 1019.41 1019.38 1019.34 1019.30 1019.24 1019.17 1019.08 1018.96 1018.80 1018.60 1018.38 1018.13 1017.87 1017.61 1017.35 1017.08 1016.81 1016.53
1008.90 1009.71 1010.53 1011.35 1012.13 1012.86 1013.55 1014.19 1014.81 1015.42 1016.02 1016.61 1017.18 1017.71 1018.18 1018.57 1018.87 1019.08 1019.19 1019.23 1019.21 1019.16 1019.09 1019.01 1018.92 1018.83 1018.72 1018.58 1018.41 1018.21 1017.98 1017.74 1017.48 1017.22 1016.96 1016.69 1016.41 1016.10
1008.28 1009.12 1009.97 1010.80 1011.59 1012.33 1013.03 1013.69 1014.34 1014.98 1015.63 1016.27 1016.90 1017.49 1018.01 1018.45 1018.77 1019.00 1019.11 1019.14 1019.10 1019.01 1018.90 1018.78 1018.65 1018.52 1018.37 1018.21 1018.02 1017.81 1017.57 1017.33 1017.07 1016.81 1016.55 1016.28 1015.99 1015.66
1007.64 1008.53 1009.42 1010.29 1011.10 1011.86 1012.56 1013.24 1013.91 1014.58 1015.27 1015.96 1016.65 1017.29 1017.87 1018.35 1018.72 1018.97 1019.10 1019.12 1019.06 1018.94 1018.79 1018.62 1018.45 1018.26 1018.07 1017.87 1017.65 1017.42 1017.17 1016.92 1016.66 1016.40 1016.14 1015.86 1015.56 1015.23
1007.03 1007.98 1008.93 1009.83 1010.67 1011.45 1012.17 1012.85 1013.53 1014.23 1014.94 1015.67 1016.40 1017.10 1017.73 1018.27 1018.68 1018.97 1019.12 1019.15 1019.08 1018.94 1018.76 1018.55 1018.32 1018.08 1017.84 1017.59 1017.33 1017.06 1016.80 1016.53 1016.26 1016.00 1015.73 1015.45 1015.14 1014.79
1006.50 1007.52 1008.52 1009.46 1010.33 1011.12 1011.84 1012.53 1013.21 1013.92 1014.65 1015.40 1016.17 1016.90 1017.58 1018.17 1018.63 1018.96 1019.14 1019.20 1019.14 1018.99 1018.78 1018.54 1018.26 1017.98 1017.68 1017.38 1017.07 1016.77 1016.46 1016.17 1015.88 1015.60 1015.31 1015.02 1014.70 1014.34
1006.08 1007.16 1008.21 1009.19 1010.08 1010.87 1011.60 1012.28 1012.96 1013.66 1014.39 1015.15 1015.93 1016.70 1017.42 1018.05 1018.55 1018.93 1019.15 1019.24 1019.20 1019.06 1018.85 1018.58 1018.27 1017.94 1017.60 1017.25 1016.89 1016.53 1016.18 1015.84 1015.52 1015.21 1014.89 1014.58 1014.24 1013.87
1005.79 1006.91 1007.99 1009.00 1009.90 1010.70 1011.42 1012.10 1012.77 1013.45 1014.17 1014.94 1015.72 1016.50 1017.24 1017.90 1018.45 1018.86 1019.13 1019.25 1019.25 1019.13 1018.93 1018.65 1018.33 1017.97 1017.59 1017.18 1016.77 1016.36 1015.95 1015.56 1015.18 1014.82 1014.47 1014.11 1013.75 1013.35
1005.61 1006.76 1007.86 1008.87 1009.78 1010.59 1011.31 1011.98 1012.64 1013.32 1014.03 1014.78 1015.56 1016.34 1017.08 1017.75 1018.32 1018.77 1019.07 1019.24 1019.27 1019.19 1019.01 1018.75 1018.42 1018.05 1017.63 1017.19 1016.72 1016.25 1015.78 1015.32 1014.87 1014.44 1014.03 1013.63 1013.22 1012.79
1005.51 1006.66 1007.76 1008.78 1009.70 1010.52 1011.25 1011.92 1012.58 1013.26 1013.96 1014.70 1015.46 1016.23 1016.96 1017.63 1018.21 1018.67 1019.00 1019.19 1019.26 1019.21 1019.07 1018.83 1018.52 1018.14 1017.71 1017.24 1016.73 1016.19 1015.65 1015.11 1014.59 1014.08 1013.60 1013.13 1012.67 1012.20
1005.43 1006.57 1007.68 1008.70 1009.63 1010.46 1011.22 1011.92 1012.60 1013.29 1013.99 1014.72 1015.46 1016.20 1016.91 1017.55 1018.11 1018.57 1018.90 1019.12 1019.22 1019.21 1019.10 1018.89 1018.61 1018.24 1017.81 1017.32 1016.77 1016.18 1015.57 1014.95 1014.34 1013.75 1013.18 1012.64 1012.11 1011.60
1005.36 1006.48 1007.58 1008.61 1009.57 1010.43 1011.23 1011.97 1012.69 1013.40 1014.12 1014.84 1015.56 1016.27 1016.93 1017.53 1018.05 1018.48 1018.81 1019.03 1019.15 1019.16 1019.09 1018.92 1018.67 1018.33 1017.90 1017.40 1016.82 1016.19 1015.52 1014.82 1014.13 1013.45 1012.80 1012.17 1011.58 1011.01
1005.27 1006.38 1007.47 1008.52 1009.51 1010.42 1011.28 1012.08 1012.85 1013.60 1014.34 1015.06 1015.75 1016.41 1017.03 1017.57 1018.04 1018.42 1018.71 1018.92 1019.04 1019.08 1019.03 1018.90 1018.69 1018.38 1017.97 1017.47 1016.88 1016.21 1015.48 1014.72 1013.95 1013.18 1012.44 1011.73 1011.07 1010.44
1005.20 1006.29 1007.39 1008.46 1009.48 1010.45 1011.37 1012.24 1013.07 1013.86 1014.62 1015.34 1016.01 1016.63 1017.17 1017.65 1018.05 1018.37 1018.62 1018.80 1018.91 1018.96 1018.93 1018.84 1018.66 1018.38 1018.00 1017.51 1016.91 1016.21 1015.44 1014.62 1013.77 1012.93 1012.10 1011.32 1010.58 1009.89
1005.19 1006.28 1007.37 1008.46 1009.52 1010.54 1011.52 1012.45 1013.34 1014.17 1014.95 1015.66 1016.30 1016.86 1017.34 1017.74 1018.06 1018.32 1018.51 1018.66 1018.75 1018.80 1018.80 1018.73 1018.58 1018.34 1017.98 1017.50 1016.90 1016.18 1015.37 1014.50 1013.58 1012.66 1011.76 1010.89 1010.09 1009.33
1005.32 1006.38 1007.47 1008.57 1009.65 1010.71 1011.73 1012.71 1013.63 1014.49 1015.27 1015.97 1016.58 1017.08 1017.49 1017.82 1018.07 1018.26 1018.40 1018.51 1018.58 1018.63 1018.64 1018.60 1018.48 1018.26 1017.92 1017.45 1016.84 1016.11 1015.26 1014.33 1013.36 1012.36 1011.38 1010.44 1009.56 1008.74
1005.64 1006.68 1007.74 1008.82 1009.91 1010.97 1012.01 1013.01 1013.94 1014.80 1015.57 1016.24 1016.81 1017.25 1017.60 1017.86 1018.05 1018.18 1018.28 1018.36 1018.42 1018.46 1018.48 1018.45 1018.35 1018.15 1017.83 1017.36 1016.74 1015.98 1015.10 1014.12 1013.08 1012.01 1010.96 1009.94 1008.98 1008.09
1006.20 1007.19 1008.21 1009.25 1010.30 1011.34 1012.36 1013.34 1014.25 1015.09 1015.82 1016.45 1016.97 1017.36 1017.66 1017.86 1018.00 1018.09 1018.16 1018.22 1018.28 1018.32 1018.35 1018.33 1018.24 1018.05 1017.72 1017.25 1016.61 1015.82 1014.89 1013.86 1012.76 1011.62 1010.49 1009.39 1008.35 1007.39
1007.01 1007.93 1008.88 1009.85 1010.83 1011.81 1012.77 1013.69 1014.55 1015.34 1016.02 1016.60 1017.06 1017.41 1017.66 1017.83 1017.93 1018.01 1018.06 1018.12 1018.17 1018.23 1018.26 1018.25 1018.16 1017.97 1017.63 1017.14 1016.47 1015.64 1014.67 1013.58 1012.41 1011.21 1010.00 1008.82 1007.71 1006.67
1008.02 1008.85 1009.71 1010.59 1011.48 1012.37 1013.24 1014.07 1014.85 1015.56 1016.18 1016.70 1017.10 1017.41 1017.63 1017.77 1017.87 1017.93 1017.99 1018.06 1018.13 1018.19 1018.23 1018.22 1018.13 1017.92 1017.57 1017.05 1016.35 1015.48 1014.46 1013.32 1012.09 1010.82 1009.54 1008.29 1007.10 1005.99
1009.19 1009.92 1010.67 1011.43 1012.20 1012.98 1013.74 1014.47 1015.15 1015.77 1016.31 1016.76 1017.12 1017.39 1017.58 1017.72 1017.81 1017.89 1017.97 1018.05 1018.13 1018.21 1018.26 1018.25 1018.15 1017.92 1017.55 1017.00 1016.26 1015.36 1014.30 1013.11 1011.84 1010.51 1009.18 1007.87 1006.61 1005.43
1010.42 1011.04 1011.67 1012.32 1012.97 1013.62 1014.26 1014.88 1015.45 1015.98 1016.44 1016.82 1017.13 1017.37 1017.55 1017.68 1017.79 1017.89 1017.98 1018.09 1018.19 1018.28 1018.33 1018.31 1018.20 1017.95 1017.56 1016.98 1016.22 1015.29 1014.20 1012.99 1011.69 1010.33 1008.96 1007.61 1006.30 1005.07
Thickness
5503 5502 5501 5502 5502 5502 5502 5502 5500 5498 5500 5503 5503 5505 5505 5507 5507 5508 5509 5509 5509 5508 5507 5507 5506 5505 5504 5502 5501 5499 5497 5496 5495 5493 5492 5491 5491 5491
5493 5493 5493 5493 5494 5494 5494 5494 5494 5492 5492 5495 5494 5496 5497 5498 5499 5499 5500 5500 5500 5499 5497 5497 5496 5495 5494 5492 5490 5488 5487 5485 5484 5483 5482 5481 5481 5481
5484 5484 5484 5484 5484 5484 5485 5486 5485 5484 5483 5484 5485 5487 5488 5489 5489 5489 5490 5490 5489 5489 5488 5487 5486 5484 5483 5481 5479 5477 5476 5475 5474 5472 5470 5470 5470 5470
5475 5475 5475 5475 5476 5476 5477 5478 5478 5478 5477 5476 5477 5478 5479 5479 5479 5480 5480 5480 5479 5479 5477 5476 5475 5474 5472 5471 5469 5467 5466 5464 5464 5462 5461 5460 5460 5460
5467 5467 5467 5467 5468 5468 5470 5471 5471 5471 5470 5470 5470 5470 5470 5470 5470 5471 5470 5469 5469 5467 5467 5465 5464 5463 5461 5460 5458 5457 5456 5455 5454 5452 5451 5450 5450 5450
5458 5458 5459 5460 5460 5461 5462 5463 5463 5463 5462 5462 5462 5462 5462 5463 5461 5461 5461 5460 5458 5457 5456 5454 5452 5451 5450 5449 5449 5447 5446 5445 5444 5443 5442 5441 5441 5441
5450 5450 5452 5453 5454 5455 5456 5456 5456 5455 5454 5454 5454 5453 5453 5453 5452 5451 5451 5450 5449 5447 5446 5444 5442 5441 5441 5439 5438 5437 5437 5436 5435 5434 5433 5433 5433 5433
5441 5443 5444 5446 5446 5447 5449 5450 5450 5449 5448 5447 5445 5445 5444 5444 5443 5442 5442 5442 5440 5437 5436 5435 5433 5432 5431 5430 5430 5429 5428 5427 5426 5425 5425 5426 5426 5426
5433 5434 5436 5437 5438 5438 5441 5441 5442 5442 5441 5439 5437 5436 5436 5436 5435 5434 5432 5430 5429 5427 5426 5426 5424 5423 5422 5421 5421 5420 5419 5418 5417 5417 5418 5418 5418 5418
5424 5426 5427 5428 5429 5430 5432 5431 5431 5431 5431 5430 5429 5429 5428 5427 5426 5426 5424 5421 5419 5417 5415 5414 5415 5415 5416 5414 5413 5412 5411 5410 5409 5409 5410 5410 5410 5410
5416 5418 5419 5420 5422 5423 5424 5422 5421 5421 5421 5421 5421 5420 5420 5419 5418 5416 5414 5412 5411 5409 5406 5405 5406 5407 5408 5407 5405 5403 5402 5401 5401 5401 5402 5402 5402 5402
5408 5410 5412 5413 5415 5415 5415 5414 5413 5412 5412 5411 5410 5410 5410 5410 5409 5407 5406 5404 5402 5400 5399 5397 5396 5396 5398 5399 5397 5395 5394 5393 5393 5393 5393 5394 5394 5394
5401 5402 5404 5406 5407 5407 5407 5406 5406 5405 5403 5402 5401 5401 5401 5400 5399 5398 5398 5397 5394 5392 5391 5389 5388 5386 5384 5387 5389 5388 5386 5385 5385 5386 5386 5386 5386 5387
5394 5394 5396 5398 5399 5399 5398 5398 5398 5397 5395 5393 5393 5392 5392 5391 5390 5390 5389 5389 5387 5386 5385 5383 5380 5379 5377 5377 5379 5380 5379 5378 5378 5378 5379 5379 5379 5379
5387 5388 5388 5389 5390 5390 5390 5390 5389 5388 5387 5386 5385 5385 5384 5384 5383 5383 5382 5381 5381 5379 5378 5377 5375 5373 5371 5370 5370 5371 5371 5371 5371 5371 5372 5372 5372 5372
5379 5379 5380 5380 5380 5381 5381 5381 5380 5380 5380 5379 5378 5377 5377 5377 5376 5376 5375 5374 5374 5372 5371 5370 5369 5368 5366 5365 5363 5363 5363 5363 5365 5364 5365 5366 5366 5366
5373 5372 5372 5372 5371 5372 5373 5373 5373 5373 5372 5371 5371 5371 5370 5370 5369 5368 5368 5367 5366 5365 5364 5364 5363 5362 5361 5360 5359 5358 5357 5357 5357 5358 5359 5361 5363 5362
5366 5364 5364 5364 5364 5364 5365 5366 5366 5365 5365 5365 5365 5364 5364 5363 5362 5362 5361 5360 5359 5358 5357 5357 5358 5358 5357 5357 5354 5353 5352 5352 5353 5353 5354 5356 5359 5360
5358 5358 5357 5357 5358 5358 5359 5359 5359 5359 5359 5359 5359 5358 5358 5357 5357 5356 5355 5354 5353 5352 5351 5352 5352 5352 5352 5352 5351 5350 5349 5349 5350 5351 5352 5353 5355 5358
5352 5352 5352 5352 5352 5353 5353 5354 5353 5353 5353 5354 5354 5353 5352 5352 5352 5351 5350 5348 5348 5347 5347 5347 5347 5347 5347 5346 5346 5347 5346 5346 5347 5348 5350 5352 5354 5356
5347 5347 5347 5347 5347 5348 5349 5349 5348 5348 5348 5349 5349 5348 5348 5348 5347 5346 5346 5345 5344 5344 5343 5343 5344 5345 5345 5344 5344 5345 5346 5346 5346 5347 5349 5350 5352 5355
5343 5343 5343 5343 5344 5344 5344 5344 5344 5344 5344 5344 5344 5344 5344 5343 5343 5342 5342 5341 5341 5340 5340 5341 5343 5343 5343 5342 5341 5341 5343 5345 5346 5347 5348 5350 5350 5351
5339 5339 5339 5339 5340 5340 5341 5341 5341 5341 5341 5340 5340 5341 5341 5340 5339 5339 5339 5339 5338 5337 5338 5339 5340 5340 5339 5339 5338 5339 5340 5343 5345 5347 5349 5350 5351 5352